CAPE
0 0 0 0 0 0 0 0 29 71 52 81 36 13 4 2 106 21 23 15 0 4 0 0 0 0 0 0 0 0 0 0 0 2 0 0 3 0 0 0 0 0 0 0
0 0 0 0 0 0 0 0 51 1 15 43 0 29 3 32 1 20 0 1 0 2 1 0 0 0 0 0 0 2 0 13 4 10 8 14 26 9 0 0 0 0 0 0
0 0 0 0 0 0 0 0 11 32 50 5 1 14 13 0 0 24 213 11 10 30 12 34 5 5 1 1 0 0 7 0 3 3 6 17 8 0 0 0 0 0 0 0
0 0 0 0 0 0 0 0 0 0 0 0 22 12 0 0 0 2 165 122 154 153 68 28 0 0 0 0 0 0 0 0 0 1 13 10 0 0 0 0 0 0 0 0
0 0 0 0 0 0 0 0 0 0 0 0 41 44 95 4 0 0 53 12 110 115 0 0 0 0 0 0 0 0 0 0 5 3 0 0 0 0 0 0 0 2 0 0
0 0 0 0 0 0 0 0 0 0 0 4 69 68 99 27 0 0 0 261 13 0 0 0 0 0 0 0 0 0 0 0 0 0 0 0 0 0 0 0 0 0 0 0
0 0 0 0 0 0 0 0 0 0 0 28 124 9 8 154 49 174 60 0 0 0 0 1 0 0 0 0 0 0 0 0 0 0 0 0 0 0 0 0 0 0 0 0
0 0 0 0 0 0 0 0 0 0 0 77 48 14 197 104 139 64 13 0 0 0 0 0 0 0 0 0 0 0 0 0 0 0 0 0 0 0 4 7 1 3 0 11
22 0 0 0 0 0 0 0 0 0 0 34 14 0 1 125 39 5 0 0 0 0 0 0 0 0 0 0 0 0 0 0 0 0 0 0 0 0 8 2 2 4 4 4
10 0 0 0 0 0 0 0 0 0 0 25 38 25 18 2 0 0 0 0 0 0 0 0 0 0 0 0 0 0 0 0 0 0 0 0 0 1 3 0 1 5 7 1
0 0 0 0 0 0 0 0 0 0 0 0 28 4 4 0 0 0 0 0 0 0 0 0 0 0 0 0 0 0 0 0 0 0 0 2 7 1 2 0 2 1 3 3
0 0 0 0 0 0 0 0 0 0 0 0 6 2 0 0 0 0 0 0 0 0 0 0 0 0 0 0 0 0 0 0 0 5 0 0 13 0 7 7 2 1 7 11
0 0 0 0 0 0 0 0 0 0 0 2 3 0 0 0 0 0 0 0 0 0 0 0 0 0 0 0 0 0 0 0 0 0 0 0 0 3 8 7 6 5 6 11
0 0 0 0 0 0 0 0 0 0 0 4 0 0 0 0 0 0 0 0 0 0 0 0 0 0 0 0 0 0 0 0 0 0 0 3 8 5 4 6 6 7 10 9
0 0 0 0 0 0 0 0 0 0 0 0 0 0 0 0 0 0 0 0 0 0 0 0 0 0 0 0 0 0 0 0 0 0 0 1 8 9 4 9 9 12 9 10
0 0 0 0 0 0 0 0 0 0 0 0 0 0 0 0 0 0 0 0 0 0 0 0 6 0 0 0 0 0 0 0 0 0 0 9 8 3 0 3 0 1 9 11
0 0 0 0 0 0 0 0 0 0 0 0 0 0 0 0 0 0 0 0 0 0 0 12 5 0 0 0 0 0 0 0 0 0 0 0 0 0 1 5 5 0 0 0
0 0 0 0 0 0 0 0 0 0 0 0 0 0 0 0 0 0 0 0 0 0 2 17 0 0 0 0 0 0 0 0 0 0 0 11 0 0 2 3 3 0 0 0
0 0 0 0 0 0 0 0 0 0 0 0 0 0 0 0 0 0 0 0 0 0 8 3 0 0 7 0 0 0 0 1 3 0 0 0 0 0 0 0 0 0 1 1
0 0 0 0 0 14 0 0 0 0 0 0 0 0 0 0 0 0 0 0 0 0 5 2 5 5 1 0 0 0 1 0 0 0 0 0 2 0 0 0 0 0 0 2
0 0 0 0 11 0 0 0 0 0 0 0 0 0 0 0 0 0 0 0 0 4 10 1 1 2 7 0 0 0 0 0 0 0 0 0 0 1 1 1 0 0 0 0
0 0 0 0 0 0 0 0 0 0 0 0 0 0 0 0 0 0 0 0 0 2 2 0 0 1 6 1 0 0 1 2 0 0 0 0 1 1 0 0 0 0 0 0
0 0 7 4 0 0 0 0 0 0 0 0 0 0 0 0 0 0 0 3 3 1 0 0 0 2 1 0 0 0 0 1 0 0 0 0 0 0 0 0 0 0 0 0
27 0 0 0 0 0 0 0 0 0 0 0 0 0 0 0 0 0 0 3 2 0 0 1 0 13 6 0 0 0 0 0 0 1 0 0 0 0 0 0 0 0 0 0
0 0 0 0 0 0 0 0 0 0 0 0 0 0 0 0 0 0 2 1 1 0 0 0 0 8 26 5 0 0 1 0 0 0 0 0 0 0 1 0 0 0 0 0
0 0 0 0 0 0 0 0 0 0 0 0 0 0 0 0 0 1 4 9 0 0 1 1 4 11 12 1 0 0 0 0 0 0 0 0 0 0 0 1 0 0 0 0
CIN
-0 -0 -0 -0 -0 -0 -0 -0 -16 -179 -322 -217 -368 -443 -533 -60 -263 -96 -123 -77 -0 -336 -0 -0 -0 -0 -0 -0 -0 -0 -0 -0 -0 -24 -0 -0 -22 -0 -0 -0 -0 -0 -0 -0
-0 -0 -0 -0 -0 -0 -0 -0 -10 -9 -280 -204 -0 -420 -314 -249 -64 -305 -52 -75 -60 -71 -80 -0 -0 -0 -0 -0 -0 -6 -1 -23 -6 -51 -49 -62 -71 -76 -0 -0 -0 -0 -0 -0
-0 -0 -0 -0 -0 -0 -0 -0 -0 -13 -88 -94 -44 -200 -393 -0 -0 -250 -107 -46 -144 -111 -110 -69 -56 -5 -4 -13 -0 -0 -19 -0 -28 -34 -88 -118 -102 -0 -0 -0 -0 -0 -0 -0
-0 -0 -0 -0 -0 -0 -0 -0 -0 -0 -0 -0 -88 -119 -0 -0 -0 -32 -89 -82 -67 -35 -29 -24 -0 -0 -0 -0 -0 -13 -0 -0 -0 -9 -145 -144 -0 -0 -0 -0 -0 -0 -0 -0
-0 -0 -0 -0 -0 -0 -0 -0 -0 -0 -0 -0 -72 -67 -136 -195 -0 -0 -116 -41 -35 -20 -0 -0 -0 -0 -0 -0 -0 -0 -0 -0 -170 -155 -0 -0 -0 -0 -0 -0 -0 -4 -0 -0
-0 -0 -0 -0 -0 -0 -0 -0 -0 -0 -0 -10 -61 -69 -40 -115 -0 -0 -0 -7 -25 -0 -0 -0 -0 -0 -0 -0 -0 -0 -0 -0 -0 -0 -0 -0 -0 -0 -0 -0 -0 -0 -0 -0
-0 -0 -0 -0 -0 -0 -0 -0 -0 -0 -0 -19 -71 -123 -51 -37 -80 -32 -35 -0 -0 -0 -0 -21 -0 -0 -0 -0 -0 -0 -0 -0 -0 -0 -0 -0 -0 -0 -0 -0 -0 -0 -1 -0
-0 -0 -0 -0 -0 -0 -0 -0 -0 -0 -0 -34 -84 -88 -13 -67 -68 -63 -59 -6 -0 -0 -0 -0 -0 -0 -0 -0 -0 -0 -0 -0 -0 -0 -0 -0 -0 -0 -23 -6 -22 -13 -8 -12
-9 -0 -0 -0 -0 -0 -0 -0 -0 -0 -0 -60 -99 -0 -90 -55 -18 -27 -0 -0 -0 -0 -0 -0 -0 -0 -0 -0 -0 -0 -0 -0 -0 -0 -0 -0 -0 -0 -19 -18 -10 -12 -21 -11
-12 -0 -0 -0 -0 -0 -0 -0 -0 -0 -0 -36 -22 -30 -30 -16 -0 -0 -0 -0 -0 -0 -0 -0 -0 -0 -0 -0 -0 -0 -0 -0 -0 -0 -0 -0 -0 -5 -6 -0 -19 -15 -9 -2
-0 -0 -0 -0 -0 -0 -0 -0 -0 -0 -0 -0 -35 -20 -15 -0 -0 -0 -0 -0 -0 -0 -0 -0 -0 -0 -0 -0 -0 -0 -0 -0 -0 -0 -0 -8 -7 -3 -25 -20 -11 -8 -5 -4
-0 -0 -0 -0 -0 -0 -0 -0 -0 -0 -0 -0 -78 -16 -0 -0 -0 -0 -0 -0 -0 -0 -0 -0 -0 -0 -0 -0 -0 -0 -0 -0 -23 -26 -0 -0 -2 -0 -23 -10 -9 -8 -11 -11
-0 -0 -0 -0 -0 -0 -0 -0 -0 -0 -0 -35 -80 -0 -0 -0 -0 -0 -0 -0 -0 -0 -0 -0 -0 -0 -0 -0 -0 -0 -0 -2 -0 -0 -0 -0 -0 -22 -14 -16 -7 -14 -9 -6
-0 -0 -0 -0 -0 -0 -0 -0 -0 -0 -0 -151 -0 -0 -0 -0 -0 -0 -0 -0 -0 -0 -0 -0 -0 -0 -0 -0 -0 -0 -0 -0 -0 -0 -0 -15 -18 -19 -20 -10 -14 -13 -10 -11
-0 -0 -0 -0 -0 -0 -0 -0 -0 -0 -0 -0 -0 -0 -0 -0 -0 -0 -0 -0 -0 -0 -0 -0 -4 -0 -0 -0 -0 -0 -0 -0 -0 -0 -0 -23 -21 -21 -17 -21 -19 -16 -14 -11
-0 -0 -0 -0 -0 -0 -0 -0 -0 -0 -0 -0 -0 -0 -0 -0 -0 -0 -0 -0 -0 -0 -0 -3 -5 -0 -0 -0 -0 -0 -0 -0 -0 -0 -0 -20 -28 -29 -0 -24 -1 -25 -12 -9
-0 -0 -0 -0 -0 -0 -0 -0 -0 -0 -0 -0 -0 -0 -0 -0 -0 -0 -0 -0 -0 -0 -3 -3 -4 -0 -0 -0 -1 -0 -0 -0 -0 -0 -0 -0 -1 -0 -12 -19 -14 -0 -0 -18
-0 -0 -0 -0 -0 -0 -0 -0 -0 -0 -0 -0 -0 -0 -0 -0 -0 -0 -0 -0 -0 -0 -4 -5 -0 -0 -0 -4 -0 -0 -0 -0 -0 -0 -2 -3 -4 -4 -8 -17 -18 -11 -0 -0
-0 -0 -0 -0 -0 -0 -0 -0 -0 -0 -0 -0 -0 -0 -0 -0 -0 -0 -0 -0 -0 -0 -5 -12 -0 -6 -10 -0 -0 -0 -0 -8 -7 -0 -0 -0 -0 -0 -0 -2 -5 -3 -26 -8
-0 -0 -0 -0 -0 -12 -0 -0 -0 -0 -0 -0 -0 -0 -0 -0 -0 -0 -0 -0 -0 -1 -10 -3 -8 -9 -3 -0 -0 -0 -6 -5 -0 -0 -0 -0 -5 -0 -0 -0 -0 -0 -0 -2
-0 -0 -0 -0 -21 -0 -0 -0 -0 -0 -0 -0 -0 -0 -0 -0 -0 -0 -0 -0 -0 -5 -7 -16 -10 -8 -11 -0 -0 -0 -6 -0 -0 -0 -0 -0 -5 -8 -7 -9 -0 -0 -3 -0
-0 -0 -0 -0 -0 -0 -0 -0 -0 -0 -0 -0 -0 -0 -0 -0 -0 -0 -0 -0 -0 -1 -3 -2 -0 -8 -8 -17 -0 -0 -4 -8 -0 -0 -0 -0 -7 -8 -0 -0 -0 -0 -0 -0
-0 -0 -8 -119 -0 -0 -0 -0 -0 -0 -0 -0 -0 -0 -0 -0 -0 -0 -0 -1 -2 -1 -0 -0 -0 -12 -30 -0 -0 -0 -0 -8 -0 -0 -0 -0 -0 -0 -0 -0 -0 -0 -0 -0
-67 -6 -0 -0 -0 -0 -0 -0 -0 -0 -0 -0 -0 -0 -0 -0 -0 -0 -0 -3 -1 -0 -1 -12 -0 -17 -17 -0 -0 -0 -0 -0 -0 -13 -0 -0 -0 -0 -0 -0 -0 -0 -0 -0
-0 -0 -0 -0 -0 -0 -0 -0 -0 -0 -0 -0 -0 -0 -0 -0 -0 -0 -1 -1 -5 -0 -2 -0 -1 -13 -11 -19 -0 -0 -28 -4 -0 -0 -0 -12 -3 -0 -7 -7 -0 -0 -0 -0
-0 -0 -0 -0 -0 -0 -0 -0 -0 -0 -0 -0 -0 -0 -0 -0 -0 -1 -2 -7 -5 -0 -10 -6 -17 -16 -9 -6 -0 -0 -0 -0 -4 -0 -0 -0 -0 -0 -3 -30 -16 -0 -0 -0
Wind_Speed
22 18 17 17 19 16 11 8 21 16 14 17 17 19 22 26 15 9 11 15 15 17 19 22 20 25 26 27 30 32 35 35 36 37 39 39 39 40 39 39 38 37 37 36
24 20 19 19 16 14 14 13 19 16 13 16 16 22 22 18 16 14 11 9 14 17 20 18 23 25 24 27 30 33 36 37 40 40 41 39 41 41 38 39 38 39 40 39
23 19 19 11 11 9 15 17 12 15 15 17 17 18 15 16 18 14 16 12 16 18 19 18 26 27 28 29 30 32 37 38 39 41 39 42 42 42 41 40 39 38 39 39
24 27 18 10 7 19 18 22 20 18 17 12 7 14 14 14 10 9 16 19 15 15 19 21 28 29 29 29 31 35 35 35 36 39 38 42 43 43 42 40 40 39 40 39
25 12 13 8 13 17 14 23 24 21 6 14 14 17 14 14 11 8 11 14 10 18 22 24 27 27 28 29 30 33 33 35 37 39 40 40 41 39 39 40 40 39 40 40
26 9 9 15 14 17 23 22 8 6 10 18 18 15 16 17 16 14 13 15 15 21 22 22 25 29 30 31 32 33 35 36 36 39 40 41 40 39 40 41 39 38 38 39
21 7 6 15 18 13 11 17 20 23 16 19 18 24 20 18 21 19 18 19 19 21 21 23 30 31 30 32 33 34 35 38 38 39 39 41 40 40 39 39 40 40 39 39
24 11 5 12 8 18 20 19 19 19 19 15 22 20 21 23 21 20 20 22 23 24 31 30 30 29 31 34 35 36 37 39 39 38 39 39 40 38 37 37 39 39 39 38
21 16 4 8 15 19 18 20 19 17 18 17 18 19 21 20 21 22 23 24 27 27 28 29 30 30 31 33 35 36 36 36 36 37 39 40 39 38 37 37 38 38 37 37
14 12 8 11 18 14 11 20 18 18 16 18 17 22 17 21 19 21 24 26 29 28 29 30 31 31 32 32 34 36 36 36 36 36 38 38 37 36 35 36 37 36 35 37
17 16 10 12 17 17 12 19 18 16 17 17 14 17 15 16 18 22 26 28 28 28 29 30 31 32 33 33 35 36 36 36 36 35 37 36 37 37 36 35 36 35 35 35
14 12 14 13 15 18 16 18 18 14 16 14 15 13 16 19 22 23 25 26 27 28 29 30 31 31 33 34 35 37 36 37 36 35 37 37 36 37 36 35 35 35 34 33
17 14 14 13 15 17 17 19 18 17 16 16 14 12 17 19 22 23 24 26 27 28 30 31 32 31 33 34 35 36 37 35 36 36 37 37 37 36 34 35 33 33 35 36
13 14 13 13 11 13 13 18 20 20 18 17 15 15 17 20 21 22 25 26 27 29 30 31 31 31 32 33 34 35 36 35 35 36 36 35 33 32 32 31 31 32 33 37
13 14 14 18 12 14 15 16 19 21 19 15 15 17 18 20 21 23 25 26 27 29 29 29 29 30 31 33 33 35 36 35 35 36 34 34 33 34 32 32 33 32 34 33
14 14 15 10 11 12 14 16 17 18 22 18 17 19 19 21 22 24 24 24 25 26 27 27 28 30 31 31 32 34 34 35 35 34 32 33 34 34 36 36 34 33 31 30
14 14 12 8 8 11 14 15 15 17 18 16 17 17 20 22 22 22 23 23 23 23 25 26 28 29 29 31 32 34 34 32 33 32 32 33 33 32 31 29 30 31 30 26
13 11 10 8 7 8 11 13 14 16 19 18 18 19 19 20 22 23 22 21 21 22 24 25 27 27 27 29 31 33 34 31 31 31 31 32 32 32 32 33 32 29 30 27
15 9 13 7 9 10 10 11 10 12 17 18 17 19 17 18 21 24 21 21 20 21 22 24 25 25 27 29 30 32 31 30 29 30 31 32 31 31 32 32 33 31 29 27
12 10 14 15 9 9 9 11 13 14 14 16 16 18 18 11 15 18 18 19 20 21 21 22 24 25 26 28 30 31 30 29 28 28 28 28 29 33 35 35 34 30 29 26
11 15 15 13 11 13 9 11 11 9 11 14 16 17 18 16 15 17 17 18 18 19 20 21 24 25 25 26 29 30 29 28 25 25 25 26 27 28 30 30 30 29 30 31
9 9 12 14 11 8 14 12 10 12 14 15 17 17 18 18 18 18 18 17 18 19 19 20 23 23 23 23 28 28 28 25 24 24 24 24 26 26 29 32 32 31 31 30
13 13 13 15 10 12 13 12 13 14 15 15 17 17 17 18 18 18 18 17 18 19 19 19 22 21 22 23 25 27 24 24 22 22 23 24 25 27 28 30 33 30 27 28
13 11 10 13 10 10 12 13 14 14 15 16 17 17 17 18 17 18 18 18 17 18 18 19 21 21 20 21 23 24 25 22 21 21 21 22 24 24 25 28 28 29 29 29
13 12 9 9 6 9 10 11 13 15 16 16 17 18 18 18 18 18 18 18 17 18 19 21 20 21 20 20 21 22 22 22 21 20 20 20 22 22 21 24 23 23 23 22
15 8 14 13 9 10 8 10 13 14 15 16 17 18 18 18 18 17 17 17 17 17 18 20 19 21 21 21 21 21 23 22 21 22 21 20 20 20 19 19 14 15 16 15
Wind_Direction
201 157 167 182 201 212 227 209 47 78 85 45 54 39 54 102 132 151 87 53 57 41 26 12 33 26 22 17 12 10 7 5 5 3 360 358 356 355 351 349 346 344 339 335
214 176 191 206 208 203 227 211 40 86 76 55 41 44 60 75 85 97 118 65 62 52 44 30 19 17 19 15 9 4 3 2 358 356 355 357 354 352 352 350 347 344 338 335
191 196 209 170 206 79 182 257 49 39 44 33 45 39 65 57 54 91 45 57 33 34 30 29 19 17 19 14 14 10 6 5 3 1 358 354 353 352 350 349 348 348 345 340
223 227 186 19 106 255 297 301 315 3 8 17 42 27 41 40 56 63 31 27 30 36 34 33 26 20 19 16 14 16 16 16 15 12 7 3 358 353 351 351 349 348 347 345
242 332 345 70 352 319 334 317 295 284 48 11 17 23 37 41 48 47 36 46 46 40 33 28 20 19 20 24 28 26 24 20 16 14 11 6 4 2 0 357 355 353 351 346
235 119 66 330 336 335 296 272 190 62 24 11 24 32 38 35 32 36 53 50 63 36 32 27 22 24 29 29 28 27 21 18 16 12 9 7 5 4 0 358 358 357 356 352
262 27 317 328 310 359 35 4 7 3 16 2 31 23 31 40 21 52 59 55 42 33 28 26 29 30 33 27 24 22 20 15 12 11 10 9 9 5 3 0 356 352 352 351
260 329 51 335 346 341 328 359 13 16 12 29 16 23 29 40 61 62 60 48 37 36 35 35 33 36 29 24 21 17 14 11 12 13 13 12 11 9 8 5 0 355 351 350
302 322 328 11 326 331 333 352 3 3 12 25 31 57 44 53 57 54 47 39 30 37 34 31 29 32 28 24 19 18 17 17 19 17 15 12 12 12 12 11 8 3 358 351
307 321 33 354 332 343 15 333 7 5 25 23 28 26 44 45 50 44 34 28 28 34 33 29 26 27 24 24 21 20 22 22 21 21 17 16 17 18 19 18 13 13 10 356
286 311 3 14 357 3 8 355 355 9 17 15 22 27 44 36 24 25 25 25 29 24 21 24 25 25 25 24 24 24 26 24 25 24 22 19 19 20 20 21 21 22 21 15
295 317 321 354 355 356 15 7 0 12 1 16 23 35 41 45 37 31 29 27 26 21 18 19 23 24 27 29 28 27 28 29 29 27 21 22 23 23 24 26 29 26 29 28
272 299 307 351 358 2 18 6 14 21 16 19 21 43 44 34 28 27 23 24 23 16 10 14 19 28 31 31 32 31 30 34 32 30 30 29 30 31 34 34 37 36 33 27
303 304 317 347 20 14 24 15 5 7 13 23 52 50 38 24 23 26 23 25 21 16 15 17 22 33 35 35 35 33 36 36 37 36 38 40 46 47 47 48 45 44 43 38
315 304 316 314 9 24 27 18 9 13 14 38 46 33 35 27 25 25 22 21 13 8 15 22 29 35 38 37 38 38 38 40 40 44 51 52 53 51 51 49 47 48 48 50
310 308 309 345 2 26 24 15 21 13 21 51 46 35 39 32 26 21 23 26 22 16 24 30 36 37 38 39 40 40 41 43 46 51 56 54 53 53 51 50 50 50 51 55
306 315 318 354 37 38 25 23 32 29 24 35 25 32 30 25 24 27 28 33 37 40 34 37 38 40 41 40 42 41 43 48 49 54 55 54 53 52 51 53 53 54 57 62
322 328 317 332 17 18 24 14 34 34 21 33 30 26 36 36 33 32 35 43 50 47 41 39 42 45 46 44 44 43 45 50 51 53 52 51 54 54 54 53 57 62 64 67
313 332 319 335 344 21 24 10 36 37 22 22 30 28 43 46 36 31 42 46 60 58 52 50 51 53 47 46 44 40 46 51 54 52 51 51 54 53 52 55 60 63 67 70
315 313 304 300 344 360 12 24 40 35 22 24 31 28 28 55 30 40 52 59 57 62 57 59 54 49 47 47 43 42 45 50 54 57 56 53 53 52 53 57 59 63 66 70
317 296 294 309 342 345 8 16 28 26 31 30 29 28 29 35 48 61 65 74 75 71 65 61 52 49 51 49 42 43 46 50 57 61 63 59 57 54 53 55 58 63 66 66
323 322 302 308 339 5 330 7 27 41 45 37 34 42 45 54 59 63 76 82 65 58 60 61 52 55 53 53 45 46 45 54 60 63 62 60 59 61 57 53 56 63 67 69
309 307 313 311 346 354 360 32 47 45 41 42 41 48 56 62 64 74 84 74 55 49 60 59 47 52 52 53 50 46 51 54 62 63 61 61 62 61 61 58 53 62 67 67
312 316 321 318 343 14 23 29 37 40 41 47 49 53 63 67 76 82 76 68 62 55 53 51 46 50 55 55 52 51 51 57 63 61 62 62 59 61 63 57 60 60 63 65
306 311 316 327 26 28 16 32 41 43 48 56 55 60 71 78 71 69 71 69 67 63 51 41 48 46 51 53 54 54 51 56 57 59 64 64 61 62 64 59 62 68 72 73
289 315 303 307 118 349 64 60 62 54 52 53 61 68 77 75 68 68 67 58 72 56 50 48 50 45 47 50 53 53 50 57 59 56 58 61 61 64 61 61 81 87 86 85